Regional Weather Roundup
Issued by NWS Kansas City/Pleasant Hill, MO

Home | Current Version | Previous Version | Text Only | Print | Product List | Glossary On
Versions: 1 2 3 4 5 6 7 8 9 10 11 12 13 14 15 16 17 18 19 20 21 22 23 24 25 26 27 28 29 30 31 32 33 34 35 36 37 38 39 40 41 42 43 44 45 46 47 48 49 50
000
ASUS43 KEAX 031110
RWREAX

WEATHER ROUNDUP FOR EASTERN KANSAS AND NORTHWEST MISSOURI
NATIONAL WEATHER SERVICE KANSAS CITY/PLEASANT HILL MO
600 AM CDT THU SEP 03 2015

KSZ040-057-103>105-MOZ028-029-037-043-031200-
...KANSAS CITY METROPOLITAN AREA...

CITY           SKY/WX    TMP DP  RH WIND       PRES   REMARKS
K.C. INTL      PTCLDY    73  67  81 S12       29.94S
K.C. DOWNTOWN  CLEAR     75  67  76 S7        29.93S
LEES SUMMIT    CLEAR     73  67  81 S10       29.96S
OLATHE - IXD   CLEAR     71  67  87 S7        29.96R
OLATHE - OJC   CLEAR     70  67  90 S6        29.95S
LAWRENCE       CLEAR     73  67  81 SE6       29.93S

$$

MOZ001>008-011>017-020>025-030>033-038>040-044>046-053-054-031200-
...NORTHERN AND CENTRAL MISSOURI...

CITY           SKY/WX    TMP DP  RH WIND       PRES   REMARKS
ST. JOSEPH     CLEAR     72  68  87 S6        29.91S
MOSBY          SUNNY     70  68  94 CALM      29.94S
WARRENSBURG    CLEAR     70  64  83 S5        29.95S
WHITEMAN AFB   PTCLDY    70  68  92 SW7       29.95S
CLINTON        CLEAR     72  70  94 CALM      29.97F
SEDALIA        MOCLDY    73  67  81 S7        29.98S
WARSAW         NOT AVBL
CHILLICOTHE      N/A     70  68  93 CALM      29.95S
KIRKSVILLE     PTCLDY    70  66  87 S5        29.97R

$$

MOZ041-047>049-056>058-063>065-088>090-097-031200-
...EASTERN AND SOUTHERN MISSOURI...

CITY           SKY/WX    TMP DP  RH WIND       PRES   REMARKS
ST. LOUIS INTL PTCLDY    77  68  73 CALM      30.00S
SPIRIT OF STL  PTCLDY    69  69 100 CALM      29.99R
COLUMBIA       CLOUDY    71  68  90 S6        29.99R
JEFFERSON CITY CLOUDY    72  68  87 SE3       29.98R
ROLLA          PTCLDY    68  66  93 S7        30.00F
OSAGE BEACH    PTCLDY    68  64  88 SE5       30.00S
SPRINGFIELD    CLEAR     70  66  87 S9        30.01S
BRANSON        CLEAR     64  64 100 CALM      30.04R
JOPLIN         CLEAR     70  66  87 S6        29.99S
WEST PLAINS    CLEAR     65  62  90 CALM      30.06R FOG

$$

IAZ060-094-KSZ022-034>040-054-083-096-NEZ052-066-093-031200-
...KANSAS...SOUTHEAST NEBRASKA AND IOWA...

CITY           SKY/WX    TMP DP  RH WIND       PRES   REMARKS
TOPEKA         PTCLDY    75  67  76 S3        29.92R
MANHATTAN      PTCLDY    75  64  68 SW9       29.88S
EMPORIA        PTCLDY    70  66  87 S12       29.93S
CHANUTE        PTCLDY    69  67  93 S7        29.96S
WICHITA        PTCLDY    71  63  75 S8        29.93R
OMAHA          PTCLDY    74  69  85 S13       29.84F
LINCOLN        CLEAR     75  66  73 S12       29.83F
FALLS CITY     LGT RAIN  74  68  81 S8        29.88S
LAMONI         PTCLDY    71  68  90 S7        29.93S
DES MOINES     PTCLDY    73  68  84 S7        29.90S

$$




USA.gov is the U.S. government's official web portal to all federal, state and local government web resources and services.